ATLAS 5 CENTAUR DEB, 44686

Orbit data source: Space-Track

ATLAS 5 CENTAUR DEB, 44686 is space debris in HEO originally from a launch on Wed, 17 Oct 2018 UTC launched from the Air Force Eastern Test Range (AFETR). Debris objects in space refer to the collection of defunct objects orbiting the Earth. Examples of debris include non-operational satellites, rocket bodies, and fragments generated from explosions, collisions, or faulty payload assembly.

Loading next visibility...
Identifier
44686, 2018-079AY
Orbit
HEO
Country
Flag of USUS
Related business
Flag of USUnited Launch Alliance/Lockheed Martin (US)
Manufacturer
ULA Decatur
Mission
Spacecraft
Bus & Motor
Unknown
Mass
Unknown
Launch date (UTC)
2018-10-17 (8 years ago)
Launch vehicle
Unknown
Launch site
Air Force Eastern Test Range (AFETR)
Object type
Payload
Rocket body
Debris
Shape & HBR
Unknown shape, 1.1 m
Radar Cross Section
Large (>1 m²)

Expand to show TLE details & history
Last TLE update: 3 days ago

TLE from 3 days ago
0 ATLAS 5 CENTAUR DEB
1 44686U 18079AY  26170.38660340 -.00000119  00000-0  00000-0 0  9991
2 44686  12.6686  73.2554 4639085 238.9635  67.2788  1.69097604 43610
Epoch: 2026-06-19T09:16Z
TLE epoch observation values (Epoch: 2026-06-19T09:16:42.533Z)
Latitude
0.00002°
Longitude
26.42698°
Altitude
24,348.435 km
Speed
3.543 km/s
True Right ascension
04h 52m 52s
True Declination
0° 00' 00"
Sunlit
Object was in daylight at epoch
Visualization orbit readout
Latitude
Unknown
Longitude
Unknown
Altitude
Unknown
Speed
Unknown
Apparent Right ascension
Unknown
Apparent Declination
Unknown
Sunlit
N/A
Visualization observer readout
Local Sidereal Time
23:18:35
Azimuth
Unknown
Elevation
Unknown
Doppler factor
Unknown
Orbital elements
Apogee altitude
37,191.763 km
Perigee altitude
9,577.404 km
Semi-major axis
29,762.721 km
Eccentricity
0.46391
Inclination
12.6686°
RAAN
73.2554°
Arg. of periapsis
238.9635°
True anomaly
120.95553°
Mean anomaly
67.2788°
Eccentric anomaly
93.80035°
Mean motion
0.4227 °/min
Orbital period
851.66 mins
BSTAR
0
Loading maneuver chart data...
Computing Atmospheric mass density...

Documentation

Showing up to 5 results
|